Starlink 3176

operational
NORAD ID: 51106 Int'l Des: 2022-005 Owner: SPXS Country: US Constellation: starlink
LEOCIRCULAR

Starlink 3176について

説明を読み込み中...

リアルタイム位置

3D地球を読み込み中...

次回通過

高度履歴

Altitude vs Time

uPlot chart will show altitude changes over time

軌道要素

1 51106U 22005C 25257.55934238 -.00001236 00000-0 -59564-4 0 9999
2 51106 53.2185 359.8005 0001218 92.3938 267.7194 15.08844094202288
Epoch: Sep 14, 2025 • Age: 21 hours

現在のステータス

高度 543.4 km
速度 7.60 km/s
衛星直下点 43.67°N, 23.38°W
打ち上げ日 Jan 19, 2022
運用期間 3.6 years
タイプ internet

技術仕様

分類 Payload
質量 297.00 kg
乾燥質量 275.00 kg
総質量 297.00 kg
長さ 0.20 m
直径 2.80 m
スパン 9.00 m
形状 Box + pan
製造者 SPXS
バスタイプ Starlink
フェーズステータス In Orbit
所有者/国 SPXS/US

大規模コンステレーション

Loading constellations...